Location: Bannatyne
(13.0833°N, 59.5333°W)
Time: 19:20:10
(UTC+00:00)

Cosmos 1300 - Pass Details

Date: 18 October 2019
Orbit: 511 x 515 km, 82.5° (Epoch: 11 November)

Event Time Altitude Azimuth Distance (km) Brightness Sun altitude
Rises 23:10:46 0° 200° (SSW) 2,620 6.6 -23.3°
Reaches altitude 10° 23:13:02 10° 210° (SSW) 1,734 5.8 -23.9°
Maximum altitude 23:16:29 33° 276° (W) 878 4.4 -24.7°
Drops below altitude 10° 23:19:56 10° 341° (NNW) 1,734 5.5 -25.6°
Enters shadow 23:21:56 - 350° (N) 2,511 6.3 -26.0°
